DW5459 Weather Reports


time (UTC)temp
C
wind
direction
speed
KPH
gust
KPH
rain 1hr
cm
rain 24hr
cm
rain mn
cm
humidity
%
barometer
mb
20260502152024 12 233 8.0 20.9 0.00 0.00 0.00 49
20260502151605 12 240 11.3 24.1 0.00 0.00 0.00 49 1011.6
20260502151517 12 234 12.9 24.1 0.00 0.00 0.00 48
20260502151030 12 239 17.7 22.5 0.00 0.00 0.00 48
20260502150541 12 236 14.5 25.7 0.00 0.00 0.00 48
20260502150113 12 229 14.5 25.7 0.00 0.00 0.00 48 1011.8
20260502130527 9 236 20.9 33.8 0.00 0.00 0.00 59
20260502130111 8 248 14.5 24.1 0.00 0.00 0.00 60 1013.5
20260502123550 8 242 19.3 29.0 0.00 0.00 0.00 61
20260502123115 7 250 17.7 25.7 0.00 0.00 0.00 61 1013.8
20260502123045 8 248 19.3 25.7 0.00 0.00 0.00 61
20260502122521 8 255 16.1 24.1 0.00 0.00 0.00 62
20260502122035 8 238 16.1 24.1 0.00 0.00 0.00 63
20260502121620 7 247 12.9 20.9 0.00 0.00 0.00 64 1014.0
20260502121551 7 232 12.9 20.9 0.00 0.00 0.00 64
20260502121024 7 248 12.9 20.9 0.00 0.00 0.00 64
20260502120538 7 240 12.9 20.9 0.00 0.00 0.00 63
20260502120125 7 231 12.9 20.9 0.00 0.00 0.00 63 1013.9
20260502115524 7 254 12.9 20.9 0.00 0.00 0.00 63
20260502115019 7 251 14.5 25.7 0.00 0.00 0.00 63
20260502114509 7 239 12.9 25.7 0.00 0.00 0.00 62 1014.0
20260502114031 7 250 14.5 24.1 0.00 0.00 0.00 61
20260502113525 7 242 14.5 24.1 0.00 0.00 0.00 61
20260502113058 7 248 16.1 24.1 0.00 0.00 0.00 62 1014.1
20260502113020 7 242 17.7 24.1 0.00 0.00 0.00 62
20260502112516 7 252 14.5 24.1 0.00 0.00 0.00 63
20260502112031 7 248 14.5 19.3 0.00 0.00 0.00 66
20260502111526 7 248 9.7 14.5 0.00 0.00 0.00 67
20260502111506 6 248 9.7 14.5 0.00 0.00 0.00 67 1014.3
20260502111018 7 246 9.7 14.5 0.00 0.00 0.00 67
20260502110534 6 248 9.7 14.5 0.00 0.00 0.00 67
20260502110059 6 243 9.7 16.1 0.00 0.00 0.00 67 1014.5
20260502110028 6 239 9.7 16.1 0.00 0.00 0.00 67
20260502105524 6 238 11.3 16.1 0.00 0.00 0.00 67
20260502105019 6 242 8.0 14.5 0.00 0.00 0.00 67
20260502104530 6 242 8.0 14.5 0.00 0.00 0.00 68 1014.6
20260502104516 6 242 8.0 14.5 0.00 0.00 0.00 68
20260502104031 6 248 8.0 12.9 0.00 0.00 0.00 68
20260502103547 6 247 8.0 12.9 0.00 0.00 0.00 68
20260502103034 6 247 6.4 14.5 0.00 0.00 0.00 68 1014.8
20260502103020 6 247 8.0 14.5 0.00 0.00 0.00 68
20260502102516 6 247 9.7 14.5 0.00 0.00 0.00 67
20260502102025 6 246 9.7 16.1 0.00 0.00 0.00 67
20260502101605 6 252 6.4 17.7 0.00 0.00 0.00 67 1014.8
20260502101520 6 245 8.0 17.7 0.00 0.00 0.00 67
20260502101016 6 249 9.7 14.5 0.00 0.00 0.00 68
20260502100532 6 240 9.7 12.9 0.00 0.00 0.00 70
20260502091520 6 178 6.4 11.3 0.00 0.00 0.00 68
20260502091036 6 173 6.4 9.7 0.00 0.00 0.00 67
20260502090555 6 166 6.4 9.7 0.00 0.00 0.00 66
20260502071524 6 158 8.0 12.9 0.00 0.00 0.00 65
20260502071506 6 158 6.4 12.9 0.00 0.00 0.00 65 1016.8
20260502071019 7 155 6.4 12.9 0.00 0.00 0.00 65
20260502070537 7 154 8.0 12.9 0.00 0.00 0.00 64
20260502070031 7 152 6.4 12.9 0.00 0.00 0.00 63
20260502070011 6 153 6.4 12.9 0.00 0.00 0.00 63 1017.1
20260502065525 7 151 8.0 16.1 0.00 0.00 0.00 62
20260502065018 7 147 8.0 16.1 0.00 0.00 0.00 62
20260502064603 6 146 9.7 17.7 0.00 0.00 0.00 62 1017.2
20260502064533 7 146 11.3 17.7 0.00 0.00 0.00 62
20260502064027 7 136 11.3 16.1 0.00 0.00 0.00 64
20260502063521 7 139 11.3 16.1 0.00 0.00 0.00 64
20260502063131 6 142 9.7 16.1 0.00 0.00 0.00 64 1017.4
20260502063037 7 141 11.3 16.1 0.00 0.00 0.00 64
20260502062553 7 144 11.3 16.1 0.00 0.00 0.00 63
20260502062025 7 152 9.7 16.1 0.00 0.00 0.00 63
20260502061534 6 155 9.7 14.5 0.00 0.00 0.00 64 1017.6
20260502061520 7 156 11.3 14.5 0.00 0.00 0.00 64
20260502061033 6 155 11.3 14.5 0.00 0.00 0.00 65
20260502060548 6 139 9.7 16.1 0.00 0.00 0.00 65
20260502060038 6 138 11.3 16.1 0.00 0.00 0.00 64 1017.8
20260502060022 6 138 11.3 16.1 0.00 0.00 0.00 65
20260502055517 6 139 11.3 17.7 0.00 0.00 0.00 64
20260502055032 6 136 11.3 17.7 0.00 0.00 0.00 63
20260502054608 6 138 11.3 19.3 0.00 0.00 0.00 62 1018.0
20260502054526 7 138 12.9 19.3 0.00 0.00 0.00 62
20260502054042 7 136 14.5 19.3 0.00 0.00 0.00 62
20260502053534 7 142 11.3 17.7 0.00 0.00 0.00 61
20260502053106 6 142 8.0 16.1 0.00 0.00 0.00 61 1018.1
20260502053028 7 142 8.0 14.5 0.00 0.00 0.00 60
20260502052524 7 146 9.7 14.5 0.00 0.00 0.00 60
20260502052020 7 154 9.7 14.5 0.00 0.00 0.00 60
20260502051531 7 157 9.7 14.5 0.00 0.00 0.00 60
20260502051516 7 155 8.0 14.5 0.00 0.00 0.00 60 1018.3
20260502051023 7 153 11.3 14.5 0.00 0.00 0.00 59
20260502050518 7 156 9.7 14.5 0.00 0.00 0.00 59
20260502050104 7 156 8.0 14.5 0.00 0.00 0.00 58 1018.4
20260502050031 7 159 8.0 14.5 0.00 0.00 0.00 58
20260502045543 7 155 9.7 14.5 0.00 0.00 0.00 57
20260502045018 7 153 9.7 14.5 0.00 0.00 0.00 57
20260502044603 7 151 9.7 14.5 0.00 0.00 0.00 58 1018.5
20260502044534 7 147 9.7 14.5 0.00 0.00 0.00 58
20260502044030 7 146 9.7 17.7 0.00 0.00 0.00 58
20260502043524 7 153 11.3 17.7 0.00 0.00 0.00 58
20260502043040 7 146 9.7 16.1 0.00 0.00 0.00 58 1018.6
20260502043021 7 146 9.7 16.1 0.00 0.00 0.00 58
20260502042516 7 144 9.7 16.1 0.00 0.00 0.00 57
20260502042032 8 142 11.3 16.1 0.00 0.00 0.00 57
20260502041603 7 150 8.0 14.5 0.00 0.00 0.00 57 1018.8
20260502041527 8 152 9.7 14.5 0.00 0.00 0.00 57
20260502041023 8 150 9.7 17.7 0.00 0.00 0.00 56
20260502040518 8 146 9.7 19.3 0.00 0.00 0.00 55
20260502040035 8 136 12.9 22.5 0.00 0.00 0.00 55
20260502040013 8 141 12.9 22.5 0.00 0.00 0.00 55 1018.8
20260502035530 8 139 11.3 17.7 0.00 0.00 0.00 55
20260502035025 8 138 11.3 17.7 0.00 0.00 0.00 56
20260502034605 8 141 9.7 17.7 0.00 0.00 0.00 57 1018.8
20260502034521 8 134 11.3 17.7 0.00 0.00 0.00 57
20260502034033 8 144 9.7 14.5 0.00 0.00 0.00 58
20260502033527 8 141 8.0 14.5 0.00 0.00 0.00 58
20260502033041 8 140 9.7 14.5 0.00 0.00 0.00 57 1018.9
20260502033023 8 140 11.3 14.5 0.00 0.00 0.00 57
20260502032541 8 141 9.7 14.5 0.00 0.00 0.00 56
20260502032036 8 138 9.7 16.1 0.00 0.00 0.00 54
20260502031615 8 145 9.7 16.1 0.00 0.00 0.00 53 1019.0
20260502031533 9 140 9.7 16.1 0.00 0.00 0.00 53
20260502031027 9 138 11.3 16.1 0.00 0.00 0.00 51
20260502030521 9 138 9.7 16.1 0.00 0.00 0.00 51
20260502030053 9 142 8.0 14.5 0.00 0.00 0.00 52 1018.9
20260502030036 9 142 9.7 14.5 0.00 0.00 0.00 52
20260502025530 9 137 11.3 14.5 0.00 0.00 0.00 52
20260502025044 10 145 9.7 16.1 0.00 0.00 0.00 51
20260502024554 9 140 11.3 17.7 0.00 0.00 0.00 51 1019.0
20260502024518 10 140 11.3 17.7 0.00 0.00 0.00 51
20260502024033 10 140 11.3 17.7 0.00 0.00 0.00 51
20260502023527 10 135 11.3 17.7 0.00 0.00 0.00 52
20260502023021 10 138 12.9 17.7 0.00 0.00 0.00 53
20260502023003 9 140 11.3 17.7 0.00 0.00 0.00 53 1019.0
20260502022531 10 121 12.9 17.7 0.00 0.00 0.00 53
20260502022047 10 129 11.3 17.7 0.00 0.00 0.00 51
20260502021623 10 140 11.3 17.7 0.00 0.00 0.00 52 1018.8
20260502021543 10 140 12.9 17.7 0.00 0.00 0.00 52
20260502021015 10 141 12.9 17.7 0.00 0.00 0.00 53
20260502020530 10 115 11.3 17.7 0.00 0.00 0.00 54
20260502020041 10 123 11.3 16.1 0.00 0.00 0.00 53 1018.9
20260502020025 10 128 11.3 17.7 0.00 0.00 0.00 52
20260502015519 11 133 11.3 17.7 0.00 0.00 0.00 49
20260502015034 11 129 8.0 17.7 0.00 0.00 0.00 47
20260502014601 11 132 11.3 17.7 0.00 0.00 0.00 47 1018.9
20260502014529 11 137 11.3 17.7 0.00 0.00 0.00 47
20260502014024 11 138 9.7 17.7 0.00 0.00 0.00 48
20260502013520 11 135 12.9 17.7 0.00 0.00 0.00 48
20260502013034 11 143 9.7 17.7 0.00 0.00 0.00 47 1018.9
20260502013017 11 142 11.3 17.7 0.00 0.00 0.00 47
20260502012533 11 137 9.7 16.1 0.00 0.00 0.00 45
20260502012029 12 126 11.3 16.1 0.00 0.00 0.00 44
20260502011557 11 121 11.3 16.1 0.00 0.00 0.00 44 1018.9
20260502011523 12 122 11.3 16.1 0.00 0.00 0.00 44
20260502011018 12 137 11.3 14.5 0.00 0.00 0.00 44
20260502010534 12 144 9.7 14.5 0.00 0.00 0.00 43
20260502010030 12 134 11.3 14.5 0.00 0.00 0.00 42
20260502010003 12 134 11.3 14.5 0.00 0.00 0.00 42 1019.0
20260502005525 12 143 11.3 16.1 0.00 0.00 0.00 41
20260502005020 13 126 8.0 16.1 0.00 0.00 0.00 41
20260502004551 13 119 8.0 11.3 0.00 0.00 0.00 40 1019.1
20260502004535 13 128 8.0 11.3 0.00 0.00 0.00 40
20260502004052 13 140 9.7 11.3 0.00 0.00 0.00 39
20260502003526 13 127 8.0 11.3 0.00 0.00 0.00 39
20260502003057 13 123 4.8 12.9 0.00 0.00 0.00 39 1019.3
20260502003022 13 123 4.8 12.9 0.00 0.00 0.00 39
20260502002516 13 123 4.8 12.9 0.00 0.00 0.00 39
20260502002034 13 124 4.8 11.3 0.00 0.00 0.00 39
20260502001526 13 125 4.8 11.3 0.00 0.00 0.00 39
20260502001508 13 125 4.8 11.3 0.00 0.00 0.00 39 1019.5
20260502001020 13 125 6.4 11.3 0.00 0.00 0.00 39
20260502000534 13 128 9.7 14.5 0.00 0.00 0.00 38
20260502000049 13 109 11.3 16.1 0.00 0.00 0.00 38
20260502000012 13 109 11.3 16.1 0.00 0.00 0.00 38 1019.6
20260501235523 13 109 11.3 16.1 0.00 0.00 0.00 38
20260501235020 13 126 11.3 16.1 0.00 0.00 0.00 38
20260501234600 12 109 9.7 14.5 0.00 0.00 0.00 38 1019.8
20260501234516 13 108 9.7 14.5 0.00 0.00 0.00 38
20260501234029 13 142 9.7 16.1 0.00 0.00 0.00 37
20260501233523 13 151 9.7 16.1 0.00 0.00 0.00 38
20260501233034 13 151 8.0 14.5 0.00 0.00 0.00 37
20260501233005 13 157 8.0 14.5 0.00 0.00 0.00 37 1020.0
20260501232550 13 130 8.0 12.9 0.00 0.00 0.00 38
20260501232025 13 132 9.7 16.1 0.00 0.00 0.00 38
20260501231551 12 166 9.7 16.1 0.00 0.00 0.00 38 1020.1
20260501231522 13 167 9.7 16.1 0.00 0.00 0.00 38
20260501231039 13 136 9.7 17.7 0.00 0.00 0.00 38
20260501230555 13 128 12.9 17.7 0.00 0.00 0.00 38
20260501230049 13 153 8.0 12.9 0.00 0.00 0.00 37 1020.2
20260501230024 13 148 9.7 12.9 0.00 0.00 0.00 37
20260501225517 13 127 9.7 14.5 0.00 0.00 0.00 37
20260501225030 13 148 8.0 14.5 0.00 0.00 0.00 37
20260501224611 13 152 8.0 14.5 0.00 0.00 0.00 37 1020.3
20260501224526 13 130 9.7 14.5 0.00 0.00 0.00 38
20260501224021 13 157 8.0 14.5 0.00 0.00 0.00 37
20260501223538 13 121 8.0 14.5 0.00 0.00 0.00 37
20260501223105 13 147 4.8 12.9 0.00 0.00 0.00 37 1020.5
20260501223030 13 163 4.8 12.9 0.00 0.00 0.00 37
20260501222523 13 113 9.7 12.9 0.00 0.00 0.00 37
20260501222037 13 134 8.0 11.3 0.00 0.00 0.00 36
20260501221626 13 247 3.2 6.4 0.00 0.00 0.00 36 1020.6
20260501221552 13 247 3.2 6.4 0.00 0.00 0.00 36
20260501221026 13 248 3.2 6.4 0.00 0.00 0.00 37
20260501220522 13 246 3.2 11.3 0.00 0.00 0.00 37
20260501220132 13 243 4.8 17.7 0.00 0.00 0.00 37 1020.9
20260501220037 13 243 6.4 17.7 0.00 0.00 0.00 37
20260501215531 13 238 8.0 17.7 0.00 0.00 0.00 37
20260501215048 13 250 1.6 14.5 0.00 0.00 0.00 37
20260501214615 12 227 8.0 14.5 0.00 0.00 0.00 37 1021.0
20260501214521 12 238 9.7 14.5 0.00 0.00 0.00 37
20260501214016 13 237 9.7 16.1 0.00 0.00 0.00 37
20260501213530 12 249 9.7 19.3 0.00 0.00 0.00 38
20260501213045 12 194 3.2 19.3 0.00 0.00 0.00 38 1021.1
20260501213025 12 194 4.8 19.3 0.00 0.00 0.00 38
20260501212519 12 209 9.7 14.5 0.00 0.00 0.00 39
20260501212031 12 222 9.7 19.3 0.00 0.00 0.00 38
20260501211612 12 197 6.4 19.3 0.00 0.00 0.00 39 1021.2
20260501211547 12 196 8.0 19.3 0.00 0.00 0.00 39
20260501211019 12 144 6.4 11.3 0.00 0.00 0.00 39
20260501210515 12 123 1.6 14.5 0.00 0.00 0.00 40
20260501210107 11 127 6.4 11.3 0.00 0.00 0.00 39 1021.4
20260501210031 12 135 6.4 11.3 0.00 0.00 0.00 39
20260501205526 11 121 0.0 16.1 0.00 0.00 0.00 39
20260501205022 11 134 9.7 16.1 0.00 0.00 0.00 39
20260501204539 11 121 6.4 14.5 0.00 0.00 0.00 39 1021.5
20260501204518 12 119 6.4 14.5 0.00 0.00 0.00 39
20260501204041 12 151 6.4 14.5 0.00 0.00 0.00 38
20260501203535 12 243 4.8 12.9 0.00 0.00 0.00 38
20260501203139 12 280 6.4 12.9 0.00 0.00 0.00 39 1021.6
20260501203050 12 263 8.0 12.9 0.00 0.00 0.00 39
20260501202525 12 360 6.4 14.5 0.00 0.00 0.00 38
20260501202021 12 351 8.0 16.1 0.00 0.00 0.00 38
20260501201549 12 329 4.8 11.3 0.00 0.00 0.00 39 1021.7
20260501201517 12 212 6.4 11.3 0.00 0.00 0.00 38
20260501201032 12 262 1.6 8.0 0.00 0.00 0.00 38
20260501200525 12 262 3.2 11.3 0.00 0.00 0.00 39
20260501200112 11 229 4.8 16.1 0.00 0.00 0.00 39 1021.9
20260501200018 11 229 4.8 16.1 0.00 0.00 0.00 39
20260501195533 11 232 6.4 16.1 0.00 0.00 0.00 39
20260501195028 11 262 9.7 16.1 0.00 0.00 0.00 40
20260501194548 11 236 3.2 16.1 0.00 0.00 0.00 41 1022.0
20260501194524 11 236 4.8 16.1 0.00 0.00 0.00 40
20260501194039 11 221 6.4 16.1 0.00 0.00 0.00 41
20260501193534 11 311 3.2 16.1 0.00 0.00 0.00 41
20260501193049 10 195 6.4 16.1 0.00 0.00 0.00 41 1022.1
20260501193029 10 198 8.0 16.1 0.00 0.00 0.00 41
20260501192522 10 232 4.8 11.3 0.00 0.00 0.00 41
20260501192036 10 208 4.8 12.9 0.00 0.00 0.00 41
20260501191553 10 255 3.2 12.9 0.00 0.00 0.00 41 1022.3
20260501191529 10 234 4.8 12.9 0.00 0.00 0.00 41
20260501191024 10 232 8.0 14.5 0.00 0.00 0.00 42
20260501190521 10 178 4.8 14.5 0.00 0.00 0.00 41
20260501190116 10 194 8.0 14.5 0.00 0.00 0.00 40 1022.3
20260501190037 10 208 9.7 14.5 0.00 0.00 0.00 41
20260501185550 10 152 4.8 16.1 0.00 0.00 0.00 42
20260501185024 10 90 3.2 16.1 0.00 0.00 0.00 42
20260501184621 10 360 4.8 12.9 0.00 0.00 0.00 43 1022.4
20260501184538 10 219 6.4 12.9 0.00 0.00 0.00 42
20260501184033 10 254 6.4 12.9 0.00 0.00 0.00 42
20260501183528 10 279 8.0 12.9 0.00 0.00 0.00 43
20260501183125 9 281 0.0 12.9 0.00 0.00 0.00 43 1022.6
20260501183044 10 281 3.2 12.9 0.00 0.00 0.00 42
20260501182538 9 254 3.2 11.3 0.00 0.00 0.00 43
20260501182054 9 254 3.2 11.3 0.00 0.00 0.00 42
20260501181610 9 252 6.4 12.9 0.00 0.00 0.00 41 1022.9
20260501181528 9 252 6.4 12.9 0.00 0.00 0.00 42
20260501181021 10 261 6.4 11.3 0.00 0.00 0.00 42
20260501180517 9 263 1.6 12.9 0.00 0.00 0.00 43
20260501180034 9 264 4.8 12.9 0.00 0.00 0.00 43
20260501180015 8 267 4.8 12.9 0.00 0.00 0.00 43 1023.1
20260501175529 9 136 3.2 8.0 0.00 0.00 0.00 44
20260501175026 8 123 3.2 8.0 0.00 0.00 0.00 44
20260501174605 8 125 3.2 16.1 0.00 0.00 0.00 45 1023.2
20260501174522 8 126 3.2 16.1 0.00 0.00 0.00 45
20260501174017 8 128 6.4 16.1 0.00 0.00 0.00 44
20260501173533 8 108 9.7 14.5 0.00 0.00 0.00 44
20260501173131 8 94 1.6 9.7 0.00 0.00 0.00 45 1023.2
20260501173047 8 136 3.2 9.7 0.00 0.00 0.00 45
20260501172523 8 136 6.4 14.5 0.00 0.00 0.00 45
20260501172019 8 182 8.0 14.5 0.00 0.00 0.00 44
20260501171538 7 167 6.4 12.9 0.00 0.00 0.00 44 1023.4
20260501171516 8 167 6.4 12.9 0.00 0.00 0.00 45
20260501171032 8 158 3.2 11.3 0.00 0.00 0.00 44
20260501170527 8 187 6.4 11.3 0.00 0.00 0.00 44
20260501170105 7 180 1.6 14.5 0.00 0.00 0.00 44 1023.4
20260501170022 8 165 3.2 14.5 0.00 0.00 0.00 44
20260501165517 8 188 4.8 12.9 0.00 0.00 0.00 44
20260501165031 7 121 3.2 11.3 0.00 0.00 0.00 44
20260501164527 7 180 6.4 11.3 0.00 0.00 0.00 45
20260501164509 7 180 6.4 14.5 0.00 0.00 0.00 45 1023.4
20260501164023 7 184 1.6 14.5 0.00 0.00 0.00 46
20260501163519 7 184 6.4 14.5 0.00 0.00 0.00 45
20260501163057 7 163 3.2 11.3 0.00 0.00 0.00 46 1023.5
20260501163034 7 149 4.8 11.3 0.00 0.00 0.00 46
20260501162527 7 164 3.2 9.7 0.00 0.00 0.00 48
20260501162022 7 168 6.4 12.9 0.00 0.00 0.00 47
20260501161529 6 196 4.8 12.9 0.00 0.00 0.00 48 1023.4
20260501161515 6 202 6.4 12.9 0.00 0.00 0.00 48
20260501161051 6 175 4.8 12.9 0.00 0.00 0.00 49
20260501160526 6 176 8.0 12.9 0.00 0.00 0.00 49
20260501160036 6 175 6.4 11.3 0.00 0.00 0.00 49 1023.4
20260501160020 6 174 6.4 11.3 0.00 0.00 0.00 49
20260501155538 6 155 3.2 14.5 0.00 0.00 0.00 49
20260501155033 6 141 8.0 14.5 0.00 0.00 0.00 49
20260501154637 6 153 6.4 11.3 0.00 0.00 0.00 50 1023.5
20260501154023 6 149 6.4 16.1 0.00 0.00 0.00 50
20260501153520 6 163 6.4 11.3 0.00 0.00 0.00 51
20260501153041 6 163 1.6 11.3 0.00 0.00 0.00 52 1023.5
20260501153015 6 164 3.2 11.3 0.00 0.00 0.00 52